Date String (YYYY-MM-DD hh:mm:ss) UTC,Instrument flags,absolute air pressure of the measurement (hPa),sample flow rate (lpm),inlet stack bypass flow (lpm),air temperature of the measurement (°C),ambient temperature measured by the external sensor (°C),aerosol sample conditioner tube jacket temperature (°C),OPC LED temperature (°C),internal box temperature (°C),relative humidity of the measurement (%),span deviation,mass concentration of particles derived from Lorenz-Mie calculation of OPC scattering (μg/m³),mass concentration of particles derived from Lorenz-Mie calculation of OPC scattering (μg/m³),mass concentration of particles derived from Lorenz-Mie calculation of OPC scattering (μg/m³)
DateTimeUTC,F1_M11,P_M11,Q1_M11,Q2_M11,T1_M11,T2_M11,T3_M11,T4_M11,T5_M11,U1_M11,ZSPAN_M11,X0_M11,X2_M11,X1_M11
2024-01-28 21:00:00,SystemResetWarning,0836.1,4.99,000.00,027.0,026.5,000.0,035.1,028.5,11.6,0000.0,0005.79,0003.41,0003.11
2024-01-28 21:01:00,SystemResetWarning,0836.2,5.00,000.00,027.1,026.5,000.0,035.2,028.5,11.3,0000.0,0005.63,0003.38,0003.10
2024-01-28 21:02:00,SystemResetWarning,0836.1,5.00,000.00,027.1,026.5,000.0,035.2,028.5,11.3,0000.0,0006.20,0003.38,0003.10
2024-01-28 21:03:00,SystemResetWarning,0836.1,5.00,000.00,027.1,026.5,000.0,035.2,028.5,11.3,0000.0,0006.03,0003.37,0003.11
2024-01-28 21:04:00,SystemResetWarning,0836.1,5.00,000.00,027.1,025.8,000.0,035.2,028.6,11.3,0000.0,0006.04,0003.36,0003.08
2024-01-28 21:05:00,SystemResetWarning,0836.1,5.00,000.00,027.0,023.7,000.0,035.2,028.3,11.3,0000.0,0006.78,0003.33,0003.01
2024-01-28 21:06:00,SystemResetWarning,0836.1,5.00,000.00,026.9,022.7,000.0,035.1,028.1,11.2,0000.0,0007.45,0003.30,0002.93
2024-01-28 21:07:00,SystemResetWarning,0836.1,5.01,000.00,026.8,022.9,000.0,035.0,027.6,11.3,0000.0,0007.36,0003.28,0002.89
2024-01-28 21:08:00,SystemResetWarning,0836.1,5.02,000.00,026.6,023.2,000.0,035.0,027.4,11.5,0000.0,0007.33,0003.24,0002.81
2024-01-28 21:09:00,SystemResetWarning,0836.1,4.99,000.00,026.6,023.6,000.0,034.9,027.4,11.5,0000.0,0007.37,0003.22,0002.72
2024-01-28 21:10:00,SystemResetWarning,0836.1,4.99,000.00,026.5,024.0,000.0,034.9,027.5,11.4,0000.0,0007.35,0003.19,0002.70
2024-01-28 21:11:00,SystemResetWarning,0836.1,5.00,000.00,026.5,024.4,000.0,034.9,027.6,11.5,0000.0,0007.08,0003.19,0002.71
2024-01-28 21:12:00,SystemResetWarning,0836.1,5.01,000.00,026.5,024.6,000.0,034.8,027.7,11.5,0000.0,0006.88,0003.19,0002.71
2024-01-28 21:13:00,SystemResetWarning,0836.1,5.01,000.00,026.5,024.9,000.0,034.8,027.8,11.4,0000.0,0006.17,0003.17,0002.67
2024-01-28 21:14:00,SystemResetWarning,0836.1,5.00,000.00,026.5,025.1,000.0,034.8,027.8,11.4,0000.0,0006.07,0003.13,0002.61
2024-01-28 21:15:00,SystemResetWarning,0836.1,5.00,000.00,026.5,025.3,000.0,034.8,027.9,11.4,0000.0,0005.97,0003.10,0002.59
2024-01-28 21:16:00,SystemResetWarning,0836.1,4.99,000.00,026.5,025.4,000.0,034.8,027.9,11.4,0000.0,0005.39,0003.12,0002.65
2024-01-28 21:17:00,SystemResetWarning,0836.1,5.00,000.00,026.6,025.5,000.0,034.8,028.0,11.5,0000.0,0004.44,0003.15,0002.73
2024-01-28 21:18:00,SystemResetWarning,0836.1,5.00,000.00,026.6,025.6,000.0,034.8,028.0,11.7,0000.0,0004.75,0003.20,0002.81
2024-01-28 21:19:00,SystemResetWarning,0836.1,5.00,000.00,026.6,025.7,000.0,034.8,028.1,11.6,0000.0,0005.36,0003.25,0002.86
2024-01-28 21:20:00,SystemResetWarning,0836.1,5.00,000.00,026.7,025.8,000.0,034.8,028.1,11.5,0000.0,0005.31,0003.26,0002.94
2024-01-28 21:21:00,SystemResetWarning,0836.1,5.00,000.00,026.7,025.9,000.0,034.8,028.1,11.5,0000.0,0006.07,0003.29,0002.97
2024-01-28 21:22:00,SystemResetWarning,0836.1,5.01,000.00,026.7,025.9,000.0,034.8,028.2,11.4,0000.0,0006.45,0003.32,0003.03
2024-01-28 21:23:00,SystemResetWarning,0836.1,5.00,000.00,026.8,025.9,000.0,034.8,028.2,11.4,0000.0,0006.64,0003.37,0003.08
2024-01-28 21:24:00,SystemResetWarning,0836.1,4.98,000.00,026.8,024.6,000.0,034.9,028.2,11.4,0000.0,0006.68,0003.39,0003.11
2024-01-28 21:25:00,SystemResetWarning,0836.1,5.00,000.00,026.6,022.6,000.0,034.8,027.9,11.5,0000.0,0006.67,0003.41,0003.14
2024-01-28 21:26:00,SystemResetWarning,0836.1,5.02,000.00,026.5,022.2,000.0,034.8,027.6,11.5,0000.0,0006.78,0003.43,0003.14
2024-01-28 21:27:00,SystemResetWarning,0836.1,5.00,000.00,026.4,022.6,000.0,034.7,027.1,11.5,0000.0,0006.85,0003.42,0003.14
2024-01-28 21:28:00,SystemResetWarning,0836.1,4.99,000.00,026.2,023.0,000.0,034.6,027.1,11.8,0000.0,0007.52,0003.40,0003.13
2024-01-28 21:29:00,SystemResetWarning,0836.1,5.00,000.00,026.2,023.4,000.0,034.6,027.1,11.9,0000.0,0007.53,0003.39,0003.12
2024-01-28 21:30:00,SystemResetWarning,0836.1,5.00,000.00,026.2,023.8,000.0,034.5,027.2,11.8,0000.0,0007.07,0003.35,0003.11
2024-01-28 21:31:00,SystemResetWarning,0836.1,5.01,000.00,026.2,024.1,000.0,034.5,027.4,11.8,0000.0,0006.90,0003.33,0003.11
2024-01-28 21:32:00,SystemResetWarning,0836.2,4.99,000.00,026.2,024.4,000.0,034.5,027.4,11.8,0000.0,0006.61,0003.35,0003.13
2024-01-28 21:33:00,SystemResetWarning,0836.2,5.00,000.00,026.2,024.6,000.0,034.5,027.5,11.7,0000.0,0006.29,0003.34,0003.13
2024-01-28 21:34:00,SystemResetWarning,0836.2,5.00,000.00,026.2,024.8,000.0,034.5,027.6,11.7,0000.0,0006.22,0003.32,0003.11
2024-01-28 21:35:00,SystemResetWarning,0836.2,5.01,000.00,026.2,025.0,000.0,034.5,027.6,11.8,0000.0,0006.99,0003.32,0003.11
2024-01-28 21:36:00,SystemResetWarning,0836.2,5.00,000.00,026.3,025.1,000.0,034.5,027.7,11.8,0000.0,0007.59,0003.33,0003.11
2024-01-28 21:37:00,SystemResetWarning,0836.2,5.00,000.00,026.3,025.3,000.0,034.5,027.7,11.8,0000.0,0008.47,0003.32,0003.13
2024-01-28 21:38:00,SystemResetWarning,0836.2,5.00,000.00,026.4,025.4,000.0,034.5,027.8,11.7,0000.0,0008.56,0003.33,0003.14
2024-01-28 21:39:00,SystemResetWarning,0836.1,4.99,000.00,026.4,025.5,000.0,034.5,027.9,11.7,0000.0,0008.00,0003.33,0003.13
2024-01-28 21:40:00,SystemResetWarning,0836.1,4.99,000.00,026.4,025.6,000.0,034.5,027.9,11.7,0000.0,0008.47,0003.32,0003.12
2024-01-28 21:41:00,SystemResetWarning,0836.2,5.00,000.00,026.5,025.6,000.0,034.5,028.0,11.7,0000.0,0008.84,0003.32,0003.11
2024-01-28 21:42:00,SystemResetWarning,0836.2,5.00,000.00,026.5,025.7,000.0,034.5,028.0,11.6,0000.0,0008.97,0003.35,0003.10
2024-01-28 21:43:00,SystemResetWarning,0836.2,5.00,000.00,026.5,025.8,000.0,034.6,028.0,11.6,0000.0,0008.94,0003.35,0003.09
2024-01-28 21:44:00,SystemResetWarning,0836.2,5.00,000.00,026.6,024.8,000.0,034.6,028.1,11.6,0000.0,0008.72,0003.35,0003.08
2024-01-28 21:45:00,SystemResetWarning,0836.2,5.00,000.00,026.5,022.7,000.0,034.6,027.7,11.5,0000.0,0008.78,0003.36,0003.11
2024-01-28 21:46:00,SystemResetWarning,0836.1,5.01,000.00,026.3,021.9,000.0,034.5,027.5,11.6,0000.0,0009.07,0003.39,0003.13
2024-01-28 21:47:00,SystemResetWarning,0836.2,5.02,000.00,026.2,022.2,000.0,034.4,027.0,11.8,0000.0,0008.72,0003.43,0003.15
2024-01-28 21:48:00,SystemResetWarning,0836.2,5.00,000.00,026.1,022.6,000.0,034.4,026.9,11.8,0000.0,0007.90,0003.46,0003.17
2024-01-28 21:49:00,SystemResetWarning,0836.2,5.00,000.00,026.0,023.0,000.0,034.3,026.9,11.8,0000.0,0007.73,0003.49,0003.19
2024-01-28 21:50:00,SystemResetWarning,0836.2,5.00,000.00,026.0,023.4,000.0,034.3,027.0,11.9,0000.0,0007.85,0003.54,0003.22
2024-01-28 21:51:00,SystemResetWarning,0836.2,5.00,000.00,026.0,023.8,000.0,034.3,027.2,11.8,0000.0,0007.49,0003.59,0003.26
2024-01-28 21:52:00,SystemResetWarning,0836.1,4.99,000.00,026.0,024.1,000.0,034.3,027.3,11.9,0000.0,0006.99,0003.63,0003.30
2024-01-28 21:53:00,SystemResetWarning,0836.1,5.00,000.00,026.0,024.4,000.0,034.2,027.3,12.0,0000.0,0007.00,0003.65,0003.34
2024-01-28 21:54:00,SystemResetWarning,0836.1,5.01,000.00,026.0,024.6,000.0,034.2,027.4,12.0,0000.0,0006.89,0003.68,0003.38
2024-01-28 21:55:00,SystemResetWarning,0836.2,4.99,000.00,026.1,024.8,000.0,034.2,027.5,11.9,0000.0,0007.06,0003.74,0003.42
2024-01-28 21:56:00,SystemResetWarning,0836.2,4.99,000.00,026.1,024.9,000.0,034.2,027.5,11.9,0000.0,0007.06,0003.76,0003.46
2024-01-28 21:57:00,SystemResetWarning,0836.1,5.00,000.00,026.1,025.1,000.0,034.2,027.6,11.8,0000.0,0005.97,0003.77,0003.48
2024-01-28 21:58:00,SystemResetWarning,0836.2,5.00,000.00,026.2,025.2,000.0,034.2,027.7,11.7,0000.0,0006.40,0003.78,0003.50
2024-01-28 21:59:00,SystemResetWarning,0836.2,5.00,000.00,026.2,025.3,000.0,034.3,027.7,11.8,0000.0,0007.37,0003.79,0003.51
